x

South Santa Rosa Is. Ca (46069) Wave Buoy

11:50 - Tue 21st Feb 2017 All times are PST. -8 hours from GMT.

  • Sig Wave height 8.9ft
  • Swell Direction
  • Peak Period 13s
  • Average Period 9s
  • Wind
    2mph, 4mph gusts
  • Sea Temp 57°f
  • Aire Temp 58°f
  • Sea Pressure 1025.9mb
  • South Santa Rosa Is. Ca
  • South Santa Rosa Is. Ca

More Historic Weather Station data

Upgrade to MSW Pro to gain access to the past 30 days of data for over 8000 Wavebouys and Weather Stations around the globe.

Join Pro

Comparision Forecast

View Surf forecast
   
mar 02/21 11:50 9ft 13s 9s 2 4 mph 1025.9mb 57f 58f
10:50 9ft 14s 9s 4
mph
1026.4mb 57f 58f
9:50 8ft 13s 9s 4
mph
1026.4mb 57f 58f
8:50 7.5ft 14s 9s 7
mph
1026mb 57f 58f
7:50 7.5ft 14s 9s 7
mph
1025.4mb 57f 57f
6:50 8ft 15s 8s 9 11 mph 1024.8mb 57f 57f
5:50 9ft 13s 9s 7 9 mph 1024.4mb 56f 57f
4:50 8ft 13s 9s 7 9 mph 1024.3mb 56f 57f
3:50 8.5ft 14s 9s 9 11 mph 1024.5mb 56f 57f
2:50 7.5ft 15s 8s 11 13 mph 1024.7mb 56f 57f
1:50 9ft 15s 9s 11 13 mph 1025.1mb 56f 57f
12:50 8.5ft 13s 9s 11 13 mph 1025.4mb 56f 57f
lun 02/20 11:50 9ft 16s 9s 11 16 mph 1025.1mb 56f 57f
10:50 9.5ft 16s 9s 11 13 mph 1025.2mb 56f 57f
9:50 9ft 16s 9s 11 13 mph 1024.9mb 56f 58f
8:50 10ft 15s 10s 16 18 mph 1024.4mb 56f 57f
7:50 10.5ft 16s 10s 11 16 mph 1024.3mb 56f 57f
6:50 10.5ft 16s 10s 9 13 mph 1024mb 56f 57f
5:50 9ft 15s 9s 9 11 mph 1023.6mb 56f 57f
4:50 10.5ft 16s 10s 9 11 mph 1023.1mb 57f 58f
3:50 10ft 17s 9s 11 13 mph 1022.9mb 57f 58f
2:50 9ft 16s 9s 9 11 mph 1022.6mb 57f 58f
1:50 9ft 16s 9s 16 20 mph 1021.9mb 57f 59f
12:50 8.5ft 17s 9s 9 13 mph 1022.2mb 57f 58f
11:50 9ft 17s 9s 9 11 mph 1022.8mb 57f 58f
10:50 8ft 17s 8s 4 7 mph 1022.9mb 56f 58f
9:50 8ft 17s 8s 4 7 mph 1022.7mb 56f 58f
8:50 8ft 17s 8s 4 7 mph 1022.2mb 56f 58f
7:50 7.5ft 13s 7s 2 4 mph 1021.5mb 56f 57f
6:50 7ft 11s 7s 2
mph
1020.8mb 56f 57f
5:50 7ft 13s 7s 4 7 mph 1020.1mb 56f 56f
4:50 7.5ft 14s 7s 7 9 mph 1019.7mb 56f 56f
3:50 7ft 12s 7s 11 13 mph 1019.2mb 56f 56f
2:50 7ft 11s 6s 11 13 mph 1019.3mb 56f 56f
1:50 8ft 11s 7s 13 18 mph 1019.3mb 56f 56f
12:50 7ft 12s 7s 16 20 mph 1019mb 56f 55f
dom 02/19 11:50 7ft 12s 7s 16 20 mph 1019.3mb 56f 54f
10:50 7ft 11s 7s 18 20 mph 1019.1mb 56f 54f
9:50 7ft 11s 7s 18 22 mph 1018.6mb 56f 54f
8:50 7ft 11s 8s 16 18 mph 1018.8mb 56f 54f
7:50 7.5ft 12s 9s 16 20 mph 1017.7mb 56f 54f
6:50 8ft 13s 9s 13 18 mph 1017mb 56f 53f
5:50 8ft 12s 9s 9 11 mph 1016.6mb 56f 54f
4:50 8ft 12s 9s 7 9 mph 1016mb 56f 56f
2:50 8ft 12s 8s 9 11 mph 1015.3mb 56f 56f
1:50 9ft 12s 8s 7 9 mph 1015.3mb 56f 56f
12:50 10.5ft 13s 8s 11 13 mph 1015.6mb 56f 56f
11:50 9.5ft 11s 8s 11 13 mph 1015.4mb 56f 55f
10:50 9ft 12s 7s 16 20 mph 1015.3mb 56f 55f
9:50 11ft 13s 8s 16 20 mph 1014.5mb 56f 55f
8:50 11.5ft 13s 8s 20 27 mph 1013.8mb 55f 55f
7:50 11.5ft 13s 8s 20 25 mph 1012.7mb 55f 54f
6:50 12ft 11s 8s 22 27 mph 1011.6mb 55f 54f
5:50 12ft 12s 8s 22 29 mph 1011mb 55f 54f
4:50 12ft 11s 8s 25 29 mph 1010.2mb 55f 54f
3:50 14ft 12s 8s 27 31 mph 1010mb 56f 54f
2:50 14ft 13s 8s 27 34 mph 1009.4mb 56f 54f
1:50 15.5ft 13s 9s 27 34 mph 1009.5mb 56f 54f
12:50 15.5ft 13s 9s 27 34 mph 1008.8mb 56f 54f
sáb 02/18 11:50 15.5ft 13s 8s 27 34 mph 1008.7mb 56f 54f
10:50 15.5ft 14s 8s 29 36 mph 1008.3mb 56f 54f
9:50 18.5ft 12s 9s 31 43 mph 1007.5mb 56f 54f
8:50 17.5ft 14s 9s 34 38 mph 1006.7mb 56f 54f
7:50 17.5ft 14s 9s 34 40 mph 1005.6mb 56f 54f
6:50 17.5ft 14s 9s 31 40 mph 1004.8mb 56f 55f
5:50 15ft 12s 8s 31 36 mph 1004.7mb 56f 55f
4:50 17ft 14s 9s 29 36 mph 1004.1mb 57f 55f
3:50 17ft 13s 9s 29 34 mph 1003.6mb 57f 55f
2:50 20ft 15s 9s 31 38 mph 1003.7mb 56f 55f
1:50 18.5ft 15s 9s 31 40 mph 1003.3mb 56f 55f
12:50 20.5ft 15s 10s 29 36 mph 1003.2mb 56f 55f
11:50 19.5ft 15s 9s 29 36 mph 1003.1mb 56f 55f
10:50 19.5ft 13s 9s 29 36 mph 1002.8mb 56f 55f
9:50 18ft 12s 9s 31 38 mph 1002.2mb 56f 55f
8:50 15ft 10s 8s 29 38 mph 1001.8mb 56f 53f
7:50 14ft 11s 8s 25 29 mph 1000mb 57f 55f
6:50 12ft 10s 8s 27 34 mph 998.8mb 56f 54f
5:50 11ft 10s 8s 13 18 mph 998.6mb 56f 54f
4:50 11ft 10s 8s 2 7 mph 998.1mb 56f 56f
3:50 11ft 11s 8s 2 4 mph 997.6mb 56f 56f
2:50 12.5ft 10s 9s 4
mph
997.5mb 56f 56f
1:50 12ft 10s 8s 4 7 mph 997mb 56f 56f
12:50 12ft 10s 8s 9 11 mph 996.7mb 56f 57f
vie 02/17 11:50 11.5ft 9s 8s 7 9 mph 996.5mb 57f 56f
10:50 13ft 10s 8s 9 11 mph 996.5mb 57f 57f
9:50 13ft 10s 8s 9 13 mph 996.4mb 57f 57f